Location: Klein M�hlingen
(51.9472°N, 11.7453°E)
Time: 20:31:31
(UTC+00:00)

Envisat - Pass Details

Date: 01 October 2021
Orbit: 764 x 766 km, 98.2° (Epoch: 20 October)

Event Time Altitude Azimuth Distance (km) Brightness Sun altitude
Rises 03:31:58 0° 22° (NNE) 3,245 6.8 -16.4°
Reaches altitude 10° 03:34:38 10° 34° (NE) 2,313 6.2 -16.0°
Maximum altitude 03:38:57 27° 93° (E) 1,435 5.2 -15.3°
Drops below altitude 10° 03:43:14 10° 151° (SSE) 2,298 5.7 -14.7°
Sets 03:45:51 0° 163° (SSE) 3,219 6.3 -14.3°
